Location: Chicoutimi
(48.4330°N, 71.0670°W)
Time: 07:11:33
(UTC-04:00)

ISS - Visible Passes

Search period start: 30 July 2016 00:00
Search period end: 09 August 2016 00:00
Orbit: 401 x 404 km, 51.6° (Epoch: 30 July)

Date Brightness Start Highest point End Pass type
(mag) Time Alt. Az. Time Alt. Az. Time Alt. Az.
30 Jul -0.5 01:19:06 10° WNW 01:19:21 12° WNW 01:19:21 12° WNW visible
30 Jul -3.4 21:12:51 10° WSW 21:16:06 71° SSE 21:19:21 10° ENE visible
30 Jul -2.3 22:49:29 10° W 22:52:39 47° N 22:55:24 13° ENE visible
31 Jul -1.6 00:26:09 10° WNW 00:28:00 29° NW 00:28:00 29° NW visible
31 Jul -2.6 21:56:25 10° W 21:59:38 55° NNW 22:02:51 10° ENE visible
31 Jul -2.5 23:33:11 10° WNW 23:36:22 49° N 23:36:40 47° NNE visible
01 Aug -3.1 21:03:22 10° WSW 21:06:38 72° NNW 21:09:53 10° ENE visible
01 Aug -2.3 22:40:10 10° WNW 22:43:19 45° N 22:45:22 19° ENE visible
02 Aug -1.2 00:16:42 10° WNW 00:17:57 21° WNW 00:17:57 21° WNW visible
02 Aug -2.3 21:47:07 10° W 21:50:16 46° N 21:53:27 10° ENE visible
02 Aug -2.8 23:23:45 10° WNW 23:26:41 59° NNW 23:26:41 59° NNW visible
03 Aug -2.5 20:54:02 10° W 20:57:13 52° N 21:00:26 10° ENE visible
03 Aug -2.6 22:30:46 10° WNW 22:33:59 51° N 22:35:26 27° ENE visible
04 Aug -0.8 00:07:16 10° WNW 00:08:00 16° WNW 00:08:00 16° WNW visible
04 Aug -2.3 21:37:46 10° WNW 21:40:55 46° N 21:44:05 10° ENE visible
04 Aug -2.6 23:14:16 10° WNW 23:16:46 49° WNW 23:16:46 49° WNW visible
05 Aug -3.2 22:21:19 10° WNW 22:24:35 69° NNE 22:25:33 41° E visible
05 Aug -0.4 23:57:57 10° W 23:58:07 11° W 23:58:07 11° W visible
06 Aug -2.7 21:28:20 10° WNW 21:31:33 53° NNE 21:34:20 13° E visible
06 Aug -2.0 23:04:50 10° WNW 23:06:55 32° W 23:06:55 32° W visible
07 Aug -3.4 22:11:50 10° WNW 22:15:05 76° SSW 22:15:44 53° SE visible
08 Aug -3.2 21:18:51 10° WNW 21:22:07 75° NNE 21:24:35 16° ESE visible
08 Aug -1.3 22:55:34 10° W 22:57:11 21° WSW 22:57:11 21° WSW visible
